• In Hungary
  • List of Countries
  • For 7 days
  • Water Temperature
  • Satellite Maps
  • Weather Map
  • News
  • Weather Widgets
  • user-avatar
    Login

    Hourly Weather Velikaya Pisarevka

    Today, 23 September, Sunday

    Time Temperature Precipitation Wind Pressure Humidity
    00:00 +20°C° 0 mm 4 mps 748 mmHg 44%
    01:00 +20°C° 0 mm 5 mps 748 mmHg 46%
    02:00 +20°C° 0 mm 5 mps 748 mmHg 48%
    03:00 +19°C° 0.1 mm 5 mps 748 mmHg 57%
    04:00 +16°C° 0.1 mm 5 mps 748 mmHg 66%
    05:00 +15°C° 0.1 mm 5 mps 748 mmHg 74%
    06:00 +14°C° 1 mm 5 mps 748 mmHg 78%
    07:00 +13°C° 1 mm 5 mps 749 mmHg 81%
    08:00 +12°C° 1 mm 5 mps 749 mmHg 85%
    09:00 +12°C° 0.4 mm 4 mps 749 mmHg 80%
    10:00 +13°C° 0.4 mm 4 mps 750 mmHg 76%
    11:00 +13°C° 0.4 mm 4 mps 750 mmHg 72%
    12:00 +14°C° 0 mm 4 mps 750 mmHg 66%
    13:00 +15°C° 0 mm 4 mps 750 mmHg 60%
    14:00 +17°C° 0 mm 4 mps 750 mmHg 55%
    15:00 +17°C° 0 mm 4 mps 750 mmHg 57%
    16:00 +16°C° 0 mm 3 mps 750 mmHg 58%
    17:00 +16°C° 0 mm 2 mps 750 mmHg 60%
    18:00 +15°C° 0 mm 2 mps 751 mmHg 63%
    19:00 +14°C° 0 mm 2 mps 751 mmHg 66%
    20:00 +13°C° 0 mm 2 mps 751 mmHg 69%
    21:00 +12°C° 0 mm 2 mps 751 mmHg 71%
    22:00 +12°C° 0 mm 2 mps 751 mmHg 72%
    23:00 +12°C° 0 mm 2 mps 751 mmHg 73%

    Tomorrow, 24 September, Monday

    Time Temperature Precipitation Wind Pressure Humidity
    00:00 +10°C° 0 mm 2 mps 751 mmHg 74%
    01:00 +10°C° 0 mm 2 mps 751 mmHg 75%
    02:00 +10°C° 0 mm 2 mps 751 mmHg 76%
    03:00 +10°C° 0 mm 2 mps 751 mmHg 76%
    04:00 +9°C° 0 mm 2 mps 750 mmHg 77%
    05:00 +9°C° 0 mm 2 mps 750 mmHg 77%
    06:00 +11°C° 0 mm 4 mps 750 mmHg 71%
    07:00 +12°C° 0 mm 5 mps 749 mmHg 65%
    08:00 +14°C° 0 mm 6 mps 748 mmHg 60%
    09:00 +15°C° 0 mm 7 mps 748 mmHg 55%
    10:00 +16°C° 0 mm 8 mps 747 mmHg 51%
    11:00 +18°C° 0 mm 9 mps 746 mmHg 46%
    12:00 +17°C° 1.5 mm 9 mps 745 mmHg 55%
    13:00 +16°C° 1.5 mm 8 mps 744 mmHg 63%
    14:00 +15°C° 1.5 mm 8 mps 744 mmHg 72%
    15:00 +15°C° 0.9 mm 8 mps 743 mmHg 71%
    16:00 +16°C° 0.9 mm 9 mps 742 mmHg 71%
    17:00 +16°C° 0.9 mm 9 mps 741 mmHg 70%
    18:00 +15°C° 1.9 mm 8 mps 742 mmHg 75%
    19:00 +14°C° 1.9 mm 7 mps 742 mmHg 79%
    20:00 +12°C° 1.9 mm 7 mps 742 mmHg 84%
    21:00 +11°C° 0.4 mm 6 mps 743 mmHg 83%
    22:00 +10°C° 0.4 mm 6 mps 743 mmHg 82%
    23:00 +10°C° 0.4 mm 6 mps 744 mmHg 81%

    Day after tomorrow, 25 September, Tuesday

    Time Temperature Precipitation Wind Pressure Humidity
    00:00 +9°C° 0 mm 6 mps 744 mmHg 81%
    01:00 +9°C° 0 mm 5 mps 744 mmHg 81%
    02:00 +8°C° 0 mm 5 mps 745 mmHg 80%
    03:00 +8°C° 0 mm 5 mps 745 mmHg 83%
    04:00 +7°C° 0 mm 5 mps 745 mmHg 86%
    05:00 +7°C° 0 mm 5 mps 745 mmHg 89%
    06:00 +7°C° 0 mm 5 mps 746 mmHg 86%
    07:00 +8°C° 0 mm 6 mps 746 mmHg 83%
    08:00 +9°C° 0 mm 6 mps 746 mmHg 80%
    09:00 +9°C° 0.1 mm 6 mps 747 mmHg 78%
    10:00 +9°C° 0.1 mm 6 mps 747 mmHg 75%
    11:00 +10°C° 0.1 mm 6 mps 748 mmHg 73%
    12:00 +10°C° 0.1 mm 6 mps 748 mmHg 70%
    13:00 +10°C° 0.1 mm 6 mps 749 mmHg 66%
    14:00 +10°C° 0.1 mm 6 mps 749 mmHg 62%
    15:00 +10°C° 0 mm 5 mps 750 mmHg 62%
    16:00 +10°C° 0 mm 5 mps 750 mmHg 62%
    17:00 +10°C° 0 mm 4 mps 751 mmHg 61%
    18:00 +8°C° 0 mm 4 mps 751 mmHg 64%
    19:00 +8°C° 0 mm 4 mps 752 mmHg 68%
    20:00 +7°C° 0 mm 4 mps 752 mmHg 71%
    21:00 +7°C° 0 mm 3 mps 753 mmHg 73%
    22:00 +7°C° 0 mm 3 mps 753 mmHg 75%
    23:00 +5°C° 0 mm 3 mps 754 mmHg 77%

    26 September, Wednesday

    Time Temperature Precipitation Wind Pressure Humidity
    00:00 +5°C° 0 mm 3 mps 754 mmHg 79%
    01:00 +4°C° 0 mm 3 mps 755 mmHg 81%
    02:00 +4°C° 0 mm 3 mps 755 mmHg 83%
    03:00 +4°C° 0 mm 4 mps 756 mmHg 84%
    04:00 +3°C° 0 mm 4 mps 756 mmHg 86%
    05:00 +3°C° 0 mm 4 mps 757 mmHg 87%
    06:00 +4°C° 0 mm 4 mps 757 mmHg 81%
    07:00 +5°C° 0 mm 4 mps 758 mmHg 76%
    08:00 +5°C° 0 mm 5 mps 758 mmHg 71%
    09:00 +7°C° 0 mm 5 mps 759 mmHg 65%
    10:00 +8°C° 0 mm 5 mps 759 mmHg 59%
    11:00 +9°C° 0 mm 5 mps 760 mmHg 53%
    12:00 +10°C° 0 mm 5 mps 760 mmHg 49%
    13:00 +10°C° 0 mm 5 mps 760 mmHg 46%
    14:00 +10°C° 0 mm 5 mps 760 mmHg 42%
    15:00 +11°C° 0 mm 4 mps 760 mmHg 46%
    16:00 +10°C° 0 mm 3 mps 760 mmHg 49%
    17:00 +9°C° 0 mm 2 mps 760 mmHg 53%
    18:00 +9°C° 0 mm 3 mps 760 mmHg 55%
    19:00 +8°C° 0 mm 3 mps 760 mmHg 58%
    20:00 +7°C° 0 mm 3 mps 760 mmHg 60%
    21:00 +7°C° 0 mm 3 mps 760 mmHg 61%
    22:00 +6°C° 0 mm 4 mps 760 mmHg 62%
    23:00 +5°C° 0 mm 4 mps 759 mmHg 63%

    27 September, Thursday

    Time Temperature Precipitation Wind Pressure Humidity
    00:00 +5°C° 0 mm 4 mps 759 mmHg 63%
    01:00 +5°C° 0 mm 5 mps 758 mmHg 63%
    02:00 +5°C° 0 mm 5 mps 758 mmHg 63%
    03:00 +5°C° 0 mm 5 mps 758 mmHg 65%
    04:00 +5°C° 0 mm 5 mps 757 mmHg 66%
    05:00 +4°C° 0 mm 6 mps 757 mmHg 68%
    06:00 +5°C° 0 mm 6 mps 756 mmHg 64%
    07:00 +6°C° 0 mm 7 mps 756 mmHg 60%
    08:00 +7°C° 0 mm 8 mps 756 mmHg 56%
    09:00 +10°C° 0 mm 8 mps 755 mmHg 53%
    10:00 +11°C° 0 mm 8 mps 755 mmHg 50%
    11:00 +12°C° 0 mm 8 mps 754 mmHg 46%
    12:00 +13°C° 0 mm 8 mps 753 mmHg 45%
    13:00 +15°C° 0 mm 8 mps 753 mmHg 44%
    14:00 +16°C° 0 mm 9 mps 752 mmHg 43%
    15:00 +15°C° 0 mm 8 mps 752 mmHg 45%
    16:00 +15°C° 0 mm 7 mps 752 mmHg 47%
    17:00 +14°C° 0 mm 6 mps 751 mmHg 48%
    18:00 +14°C° 0 mm 6 mps 751 mmHg 49%
    19:00 +14°C° 0 mm 7 mps 751 mmHg 50%
    20:00 +12°C° 0 mm 7 mps 751 mmHg 51%
    21:00 +12°C° 0 mm 7 mps 751 mmHg 52%
    22:00 +13°C° 0 mm 6 mps 751 mmHg 53%
    23:00 +13°C° 0 mm 6 mps 750 mmHg 54%

    28 September, Friday

    Time Temperature Precipitation Wind Pressure Humidity
    00:00 +13°C° 0 mm 6 mps 750 mmHg 56%
    01:00 +13°C° 0 mm 6 mps 750 mmHg 59%
    02:00 +13°C° 0 mm 5 mps 750 mmHg 61%
    03:00 +12°C° 0 mm 5 mps 750 mmHg 63%
    04:00 +12°C° 0 mm 5 mps 750 mmHg 65%
    05:00 +12°C° 0 mm 5 mps 750 mmHg 67%
    06:00 +12°C° 0 mm 5 mps 750 mmHg 67%
    07:00 +13°C° 0 mm 5 mps 750 mmHg 68%
    08:00 +13°C° 0 mm 5 mps 750 mmHg 68%
    09:00 +14°C° 0 mm 5 mps 750 mmHg 66%
    10:00 +15°C° 0 mm 5 mps 750 mmHg 65%
    11:00 +16°C° 0 mm 5 mps 750 mmHg 64%
    12:00 +17°C° 0 mm 5 mps 749 mmHg 60%
    13:00 +19°C° 0 mm 6 mps 749 mmHg 57%
    14:00 +20°C° 0 mm 7 mps 748 mmHg 54%
    15:00 +18°C° 0.1 mm 7 mps 748 mmHg 59%
    16:00 +19°C° 0.1 mm 6 mps 748 mmHg 63%
    17:00 +17°C° 0.1 mm 6 mps 748 mmHg 68%
    18:00 +15°C° 0.1 mm 6 mps 749 mmHg 73%
    19:00 +14°C° 0.1 mm 6 mps 749 mmHg 78%
    20:00 +12°C° 0.1 mm 5 mps 750 mmHg 83%
    21:00 +10°C° 0 mm 5 mps 750 mmHg 84%
    22:00 +10°C° 0 mm 4 mps 751 mmHg 85%
    23:00 +7°C° 0 mm 4 mps 751 mmHg 86%
    Show more